Location: Arbon
(43.0005°N, 0.7472°E)
Time: 21:41:35
(UTC+00:00)

Explorer 7 - Pass Details

Date: 26 November 2020
Orbit: 484 x 678 km, 50.3° (Epoch: 25 January)

Event Time Altitude Azimuth Distance (km) Brightness Sun altitude
Rises 06:01:26 0° 290° (WNW) 2,782 - -11.2°
Reaches altitude 10° 06:04:00 10° 302° (WNW) 1,846 - -10.7°
Exits shadow 06:04:42 14° 307° (NW) 1,612 8.6 -10.6°
Maximum altitude 06:07:40 29° 3° (N) 1,004 8.0 -10.1°
Drops below altitude 10° 06:11:11 10° 65° (ENE) 1,749 10.1 -9.5°
Sets 06:13:32 0° 77° (ENE) 2,608 11.3 -9.1°
